Springfield, IL

7:52 PM CDT on March 30, 2017 (GMT -0500)
Capital

Weather History for KSPI - May, 2013

Change the Weather History Date:

Saturday, May 25, 2013

  Actual Average Record
Temperature  
Mean Temperature 53 °F 66 °F  
Max Temperature 58 °F 77 °F 95 °F (1967)
Min Temperature 48 °F 56 °F 35 °F (1925)
Degree Days  
Heating Degree Days 14 2  
Month to date heating degree days 114  
Since 1 July heating degree days 5459  
Cooling Degree Days 0 4  
Month to date cooling degree days 79 58  
Year to date cooling degree days 93 78  
Growing Degree Days 2 (Base 50)    
Moisture  
Dew Point 47 °F    
Average Humidity 80    
Maximum Humidity 100    
Minimum Humidity 59    
Precipitation  
Precipitation 0.46 in 0.15 in 2.36 in (1909)
Month to date precipitation 5.56 3.39  
Year to date precipitation 19.68 13.16  
Snow  
Snow 0.00 in 0.00 in 0.00 in ()
Month to date snowfall 0.0 0.0  
Since 1 July snowfall 33.1 20.9  
Snow Depth 0.00 in    
Sea Level Pressure  
Sea Level Pressure 30.31 in    
Wind  
Wind Speed 9 mph (East)    
Max Wind Speed 18 mph    
Max Gust Speed 24 mph    
Visibility 9 miles    
Events Rain , Thunderstorm    
T = Trace of Precipitation, MM = Missing Value Source: NWS Daily Summary

Daily Weather History Graph

Daily Weather History Graph

Search for Another Location

Airport or City:

Trip Planner

Search our weather history database for the weather conditions in past years. The results will help you decide how hot, cold, wet, or windy it might be!

Date:

Astronomy

May. 25, 2013 Rise Set
Actual Time 5:35 AM CDT 8:15 PM CDT
Civil Twilight 5:04 AM CDT 8:47 PM CDT
Nautical Twilight 4:25 AM CDT 9:26 PM CDT
Astronomical Twilight 3:40 AM CDT 10:11 PM CDT
Moon 9:03 PM CDT (5/25) 6:02 AM CDT (5/25)
Length of Visible Light 15h 42m
Length of Day
14h 39m
Full, 100% of the Moon is Illuminated
May 25
Full
May 31
Last Quarter
Jun 8
New
Jun 16
First Quarter
Jun 23
Full

Hourly Weather History & Observations

Time (CDT) Temp. Dew Point Humidity Pressure Visibility Wind Dir Wind Speed Gust Speed Precip Events Conditions
12:52 AM 46.9 °F 44.1 °F 90% 30.31 in 10.0 mi East 4.6 mph - N/A   Clear
1:52 AM 50.0 °F 43.0 °F 77% 30.30 in 10.0 mi East 6.9 mph - N/A   Clear
2:52 AM 53.1 °F 41.0 °F 64% 30.27 in 10.0 mi ESE 12.7 mph 20.7 mph N/A   Clear
3:52 AM 53.1 °F 39.0 °F 59% 30.28 in 10.0 mi ESE 9.2 mph - N/A   Scattered Clouds
4:52 AM 51.1 °F 41.0 °F 68% 30.34 in 10.0 mi ENE 6.9 mph - N/A   Overcast
5:52 AM 51.1 °F 41.0 °F 68% 30.35 in 10.0 mi East 5.8 mph - N/A   Overcast
6:52 AM 53.1 °F 41.0 °F 64% 30.38 in 10.0 mi ESE 4.6 mph - N/A   Mostly Cloudy
7:52 AM 53.1 °F 41.0 °F 64% 30.37 in 10.0 mi SE 8.1 mph - N/A   Overcast
8:52 AM 53.1 °F 45.0 °F 74% 30.36 in 10.0 mi ESE 8.1 mph - 0.00 in Rain Light Rain
9:52 AM 52.0 °F 46.9 °F 83% 30.35 in 10.0 mi SE 8.1 mph - 0.02 in Rain Light Rain
10:52 AM 52.0 °F 48.9 °F 89% 30.37 in 9.0 mi ENE 5.8 mph - 0.03 in Rain Light Rain
11:52 AM 52.0 °F 51.1 °F 97% 30.41 in 9.0 mi ENE 5.8 mph - 0.05 in Rain Light Rain
12:27 PM 51.8 °F 50.0 °F 94% 30.37 in 4.0 mi ENE 9.2 mph - 0.09 in Rain , Thunderstorm Thunderstorms and Rain
12:42 PM 51.8 °F 50.0 °F 94% 30.36 in 6.0 mi East 8.1 mph - 0.15 in Rain Rain
12:52 PM 52.0 °F 50.0 °F 93% 30.36 in 6.0 mi East 9.2 mph - 0.17 in Rain , Thunderstorm Thunderstorms and Rain
1:18 PM 51.8 °F 50.0 °F 94% 30.32 in 9.0 mi East 9.2 mph - 0.05 in Rain Light Rain
1:52 PM 51.1 °F 48.9 °F 92% 30.30 in 6.0 mi SE 11.5 mph - 0.09 in Rain Rain
2:52 PM 52.0 °F 50.0 °F 93% 30.25 in 7.0 mi SE 9.2 mph - 0.07 in Rain Light Rain
3:52 PM 57.0 °F 51.1 °F 81% 30.23 in 10.0 mi ESE 10.4 mph - 0.01 in   Mostly Cloudy
4:52 PM 57.0 °F 50.0 °F 77% 30.23 in 10.0 mi ESE 11.5 mph - N/A   Overcast
5:52 PM 55.9 °F 48.9 °F 77% 30.24 in 7.0 mi ENE 8.1 mph - 0.00 in Rain Light Rain
6:52 PM 54.0 °F 51.1 °F 90% 30.25 in 10.0 mi ENE 10.4 mph - 0.02 in   Overcast
7:52 PM 54.0 °F 50.0 °F 86% 30.25 in 10.0 mi ENE 11.5 mph - N/A   Overcast
8:52 PM 53.1 °F 48.9 °F 86% 30.25 in 10.0 mi East 13.8 mph - N/A   Overcast
9:52 PM 53.1 °F 48.9 °F 86% 30.26 in 10.0 mi East 13.8 mph 20.7 mph N/A   Overcast
10:52 PM 53.1 °F 48.0 °F 83% 30.26 in 10.0 mi East 13.8 mph 18.4 mph N/A   Overcast
11:52 PM 53.1 °F 48.0 °F 83% 30.25 in 10.0 mi East 11.5 mph - N/A   Overcast